Location: Beuvrequen
(50.8014°N, 1.6652°E)
Time: 21:25:44
(UTC+00:00)

Lacrosse 4 Rocket - Pass Details

Date: 16 October 2021
Orbit: 537 x 619 km, 68.0° (Epoch: 04 December)

Event Time Altitude Azimuth Distance (km) Brightness Sun altitude
Rises 20:07:55 0° 323° (NW) 2,791 5.8 -30.1°
Reaches altitude 10° 20:10:08 10° 321° (NW) 1,902 4.8 -30.4°
Enters shadow 20:12:22 30° 313° (NW) 1,066 3.2 -30.8°
